CW9854 Weather Reports


time (UTC)temp
C
wind
direction
speed
KPH
gust
KPH
rain 1hr
cm
rain 24hr
cm
rain mn
cm
humidity
%
barometer
mb
20260509224503 16 215 0.0 4.8 0.00 0.00 0.00 73 1002.5
20260509224217 16 215 0.0 4.8 0.00 0.00 0.00 72 1002.4
20260509223503 16 215 0.0 3.2 0.00 0.00 0.00 73 1002.2
20260509223003 16 215 0.0 3.2 0.00 0.00 0.00 73 1002.2
20260509222503 16 215 0.0 3.2 0.00 0.00 0.00 72 1002.2
20260509222003 16 215 0.0 3.2 0.00 0.00 0.00 75 1002.4
20260509221503 16 215 1.6 3.2 0.00 0.00 0.00 73 1002.4
20260509221003 16 215 0.0 3.2 0.00 0.00 0.00 73 1002.3
20260509220503 17 215 0.0 3.2 0.00 0.00 0.00 73 1002.8
20260509220216 17 204 1.6 4.8 0.00 0.00 0.00 72 1002.9
20260509215503 17 208 1.6 4.8 0.00 0.00 0.00 71 1002.8
20260509215217 17 216 1.6 4.8 0.00 0.00 0.00 69 1002.6
20260509214503 17 217 1.6 8.0 0.00 0.00 0.00 72 1002.7
20260509214003 17 218 1.6 8.0 0.00 0.00 0.00 70 1002.8
20260509213503 16 257 0.0 1.6 0.00 0.00 0.00 70 1002.8
20260509213003 17 257 1.6 4.8 0.00 0.00 0.00 70 1002.7
20260509212503 17 257 1.6 4.8 0.00 0.00 0.00 71 1003.1
20260509212003 17 257 1.6 4.8 0.00 0.00 0.00 70 1003.2
20260509211503 17 257 1.6 4.8 0.00 0.00 0.00 69 1003.2
20260509211003 17 257 1.6 4.8 0.00 0.00 0.00 68 1003.1
20260509210503 17 257 1.6 4.8 0.00 0.00 0.00 69 1003.0
20260509210218 17 257 1.6 4.8 0.00 0.00 0.00 67 1002.9
20260509205504 17 232 3.2 8.0 0.00 0.00 0.00 70 1003.1
20260509205003 17 200 3.2 8.0 0.00 0.00 0.00 69 1003.1
20260509204503 17 220 3.2 8.0 0.00 0.00 0.00 68 1003.0
20260509204003 17 233 3.2 6.4 0.00 0.00 0.00 67 1003.1
20260509203503 17 225 3.2 4.8 0.00 0.00 0.00 66 1003.2
20260509203003 17 226 3.2 6.4 0.00 0.00 0.00 69 1003.1
20260509202503 18 239 3.2 6.4 0.00 0.00 0.00 66 1003.0
20260509202003 18 231 3.2 6.4 0.00 0.00 0.00 63 1003.0
20260509201503 18 219 3.2 14.5 0.00 0.00 0.00 65 1003.1
20260509201218 18 227 3.2 14.5 0.00 0.00 0.00 63 1003.0
20260509200503 18 242 4.8 11.3 0.00 0.00 0.00 64 1003.0
20260509200003 18 231 4.8 14.5 0.00 0.00 0.00 65 1003.1
20260509195503 18 217 3.2 14.5 0.00 0.00 0.00 63 1003.1
20260509195005 18 221 4.8 19.3 0.00 0.00 0.00 66 1003.0
20260509194503 18 209 4.8 19.3 0.00 0.00 0.00 63 1003.1
20260509194003 18 212 3.2 8.0 0.00 0.00 0.00 65 1003.4
20260509193503 18 227 4.8 14.5 0.00 0.00 0.00 64 1003.7
20260509193003 18 211 6.4 14.5 0.00 0.00 0.00 64 1003.7
20260509192503 18 201 4.8 12.9 0.00 0.00 0.00 65 1003.6
20260509192003 18 225 3.2 9.7 0.00 0.00 0.00 66 1003.9
20260509191716 18 221 4.8 12.9 0.00 0.00 0.00 67 1004.0
20260509191003 18 211 3.2 12.9 0.00 0.00 0.00 63 1004.1
20260509190503 18 227 3.2 8.0 0.00 0.00 0.00 67 1004.2
20260509190004 18 234 3.2 8.0 0.00 0.00 0.00 66 1004.3
20260509185503 18 239 3.2 9.7 0.00 0.00 0.00 66 1004.3
20260509185003 18 233 4.8 11.3 0.00 0.00 0.00 63 1004.3
20260509184503 18 232 4.8 11.3 0.00 0.00 0.00 66 1004.2
20260509184003 18 226 4.8 8.0 0.00 0.00 0.00 65 1004.2
20260509183718 18 223 4.8 8.0 0.00 0.00 0.00 66 1004.3
20260509183003 18 236 4.8 8.0 0.00 0.00 0.00 64 1004.3
20260509182503 18 221 3.2 16.1 0.00 0.00 0.00 67 1004.2
20260509182217 18 210 4.8 16.1 0.00 0.00 0.00 65 1004.2
20260509181503 18 207 4.8 14.5 0.00 0.00 0.00 63 1004.2
20260509181003 18 220 4.8 14.5 0.00 0.00 0.00 62 1004.3
20260509180503 18 228 4.8 9.7 0.00 0.00 0.00 65 1004.4
20260509180217 18 220 3.2 9.7 0.00 0.00 0.00 61 1004.3
20260509175503 18 222 3.2 8.0 0.00 0.00 0.00 61 1004.4
20260509175003 17 246 3.2 9.7 0.00 0.00 0.00 64 1004.6
20260509174503 17 249 3.2 9.7 0.00 0.00 0.00 65 1004.9
20260509174217 17 243 3.2 8.0 0.00 0.00 0.00 66 1004.9
20260509173503 17 249 3.2 6.4 0.00 0.00 0.00 64 1005.0
20260509173003 17 235 3.2 8.0 0.00 0.00 0.00 64 1005.0
20260509172503 17 215 3.2 9.7 0.00 0.00 0.00 64 1005.1
20260509172003 17 230 3.2 9.7 0.00 0.00 0.00 68 1005.1
20260509171503 17 232 3.2 8.0 0.00 0.00 0.00 64 1005.2
20260509171003 17 228 3.2 8.0 0.00 0.00 0.00 66 1005.1
20260509170504 17 235 3.2 9.7 0.00 0.00 0.00 67 1005.2
20260509170003 17 244 3.2 9.7 0.00 0.00 0.00 67 1005.2
20260509165718 17 247 3.2 9.7 0.00 0.00 0.00 66 1005.2
20260509165003 17 227 3.2 8.0 0.00 0.00 0.00 68 1005.3
20260509164503 17 234 1.6 9.7 0.00 0.00 0.00 68 1005.2
20260509164003 17 250 3.2 9.7 0.00 0.00 0.00 67 1005.5
20260509163503 17 230 3.2 12.9 0.00 0.00 0.00 66 1005.5
20260509163003 17 210 3.2 12.9 0.00 0.00 0.00 65 1005.5
20260509162503 17 209 3.2 8.0 0.00 0.00 0.00 65 1005.5
20260509162004 16 225 3.2 6.4 0.00 0.00 0.00 67 1005.5
20260509161503 16 228 3.2 6.4 0.00 0.00 0.00 68 1005.5
20260509161003 16 222 3.2 6.4 0.00 0.00 0.00 68 1005.6
20260509160503 16 224 3.2 11.3 0.00 0.00 0.00 70 1005.7
20260509160218 16 231 3.2 11.3 0.00 0.00 0.00 70 1005.7
20260509155503 16 234 3.2 11.3 0.00 0.00 0.00 72 1005.8
20260509155003 16 247 3.2 11.3 0.00 0.00 0.00 70 1005.8
20260509154717 16 253 3.2 6.4 0.00 0.00 0.00 71 1005.8
20260509154219 15 229 1.6 6.4 0.00 0.00 0.00 72 1005.9
20260509153503 15 229 1.6 4.8 0.00 0.00 0.00 73 1006.0
20260509153003 15 260 3.2 6.4 0.00 0.00 0.00 74 1006.1
20260509152503 15 258 3.2 6.4 0.00 0.00 0.00 73 1006.1
20260509152009 15 250 3.2 8.0 0.00 0.00 0.00 74 1006.2
20260509151506 14 247 3.2 8.0 0.00 0.00 0.00 75 1006.2
20260509151218 14 239 3.2 4.8 0.00 0.00 0.00 74 1006.2
20260509150503 15 216 3.2 8.0 0.00 0.00 0.00 76 1006.2
20260509150003 15 218 3.2 9.7 0.00 0.00 0.00 75 1006.2
20260509145503 15 223 3.2 9.7 0.00 0.00 0.00 75 1006.2
20260509145218 15 222 3.2 9.7 0.00 0.00 0.00 78 1006.2
20260509144503 14 205 3.2 9.7 0.00 0.00 0.00 77 1006.2
20260509144218 14 199 3.2 8.0 0.00 0.00 0.00 76 1006.2
20260509143503 14 209 3.2 8.0 0.00 0.00 0.00 77 1006.3
20260509143003 14 227 1.6 4.8 0.00 0.00 0.00 80 1006.3
20260509142503 14 232 3.2 6.4 0.00 0.00 0.00 79 1006.2
20260509142003 13 234 3.2 6.4 0.00 0.00 0.00 78 1006.3
20260509141503 13 229 3.2 6.4 0.00 0.00 0.00 81 1006.4
20260509141218 13 211 3.2 9.7 0.00 0.00 0.00 80 1006.5
20260509140503 13 206 3.2 9.7 0.00 0.00 0.00 81 1006.5
20260509140005 13 215 3.2 9.7 0.00 0.00 0.00 81 1006.5
20260509135503 13 226 3.2 9.7 0.00 0.00 0.00 81 1006.5
20260509135003 13 221 3.2 9.7 0.00 0.00 0.00 82 1006.5
20260509134503 13 225 3.2 8.0 0.00 0.00 0.00 81 1006.5
20260509134003 13 230 3.2 8.0 0.00 0.00 0.00 82 1006.5
20260509133503 13 219 3.2 6.4 0.00 0.00 0.00 83 1006.6
20260509133004 13 219 1.6 8.0 0.00 0.00 0.00 83 1006.6
20260509132718 13 214 1.6 8.0 0.00 0.00 0.00 83 1006.6
20260509132003 12 213 3.2 9.7 0.00 0.00 0.00 84 1006.6
20260509131504 12 219 3.2 9.7 0.00 0.00 0.00 84 1006.6
20260509131003 12 212 3.2 8.0 0.00 0.00 0.00 85 1006.6
20260509130503 12 215 1.6 9.7 0.00 0.00 0.00 85 1006.7
20260509130003 12 224 1.6 9.7 0.00 0.00 0.00 86 1006.7
20260509125503 11 223 1.6 16.1 0.00 0.00 0.00 86 1006.8
20260509125003 11 221 1.6 16.1 0.00 0.00 0.00 87 1006.8
20260509124503 11 209 1.6 8.0 0.00 0.00 0.00 88 1006.9
20260509124003 11 206 1.6 6.4 0.00 0.03 0.00 88 1006.9
20260509123504 10 205 1.6 6.4 0.00 0.03 0.00 89 1006.9
20260509123219 10 213 1.6 6.4 0.00 0.03 0.00 89 1006.9
20260509122718 10 212 1.6 3.2 0.00 0.03 0.00 90 1006.9
20260509122003 10 206 1.6 6.4 0.00 0.03 0.00 92 1007.0
20260509121718 9 208 1.6 6.4 0.00 0.03 0.00 93 1007.0
20260509121003 8 0 0.0 0.0 0.00 0.03 0.00 94 1007.1
20260509120718 8 159 0.0 1.6 0.00 0.03 0.00 94 1007.0
20260509120004 7 159 0.0 1.6 0.00 0.05 0.00 94 1007.0
20260509115504 7 0 0.0 0.0 0.00 0.05 0.00 94 1007.0
20260509115003 7 0 0.0 0.0 0.00 0.05 0.00 94 1007.0
20260509114504 7 0 0.0 0.0 0.00 0.05 0.00 94 1006.9
20260509114003 6 0 0.0 0.0 0.00 0.08 0.00 94 1007.0
20260509113506 6 0 0.0 0.0 0.00 0.10 0.00 93 1007.1
20260509113003 6 0 0.0 0.0 0.00 0.10 0.00 93 1007.1
20260509112503 6 0 0.0 0.0 0.00 0.13 0.00 93 1007.0
20260509112217 6 0 0.0 0.0 0.00 0.15 0.00 93 1007.0
20260509111503 6 0 0.0 0.0 0.00 0.18 0.00 93 1007.1
20260509111003 5 0 0.0 0.0 0.00 0.18 0.00 93 1007.2
20260509110503 5 0 0.0 0.0 0.00 0.20 0.00 93 1007.3
20260509110003 5 0 0.0 0.0 0.00 0.20 0.00 93 1007.4
20260509105503 5 0 0.0 0.0 0.00 0.20 0.00 93 1007.3
20260509105003 5 0 0.0 0.0 0.00 0.20 0.00 93 1007.3
20260509104503 5 0 0.0 0.0 0.00 0.20 0.00 92 1007.3
20260509104003 5 0 0.0 0.0 0.00 0.20 0.00 92 1007.3
20260509103503 5 0 0.0 0.0 0.00 0.20 0.00 92 1007.2
20260509103003 5 0 0.0 0.0 0.00 0.23 0.00 92 1007.1
20260509102503 5 0 0.0 0.0 0.00 0.23 0.00 91 1007.1
20260509102003 5 0 0.0 0.0 0.00 0.23 0.00 91 1007.1
20260509101503 5 0 0.0 0.0 0.00 0.23 0.00 91 1007.0
20260509101003 5 0 0.0 0.0 0.00 0.23 0.00 91 1007.0
20260509100503 5 0 0.0 0.0 0.00 0.23 0.00 91 1007.0
20260509100004 5 0 0.0 0.0 0.00 0.23 0.00 91 1007.0
20260509095503 5 0 0.0 0.0 0.00 0.23 0.00 91 1007.1
20260509095003 5 0 0.0 0.0 0.00 0.23 0.00 91 1007.1
20260509094503 4 0 0.0 0.0 0.00 0.23 0.00 91 1007.1
20260509094003 4 0 0.0 0.0 0.00 0.23 0.00 91 1007.1
20260509093717 4 0 0.0 0.0 0.00 0.23 0.00 91 1007.1
20260509093003 4 0 0.0 0.0 0.00 0.23 0.00 91 1007.1
20260509092503 4 0 0.0 0.0 0.00 0.23 0.00 90 1007.1
20260509092003 4 0 0.0 0.0 0.00 0.23 0.00 90 1007.2
20260509091503 4 0 0.0 0.0 0.00 0.23 0.00 90 1007.1
20260509091003 4 0 0.0 0.0 0.00 0.23 0.00 90 1007.1
20260509090503 4 0 0.0 0.0 0.00 0.23 0.00 90 1007.2
20260509090003 4 0 0.0 0.0 0.00 0.23 0.00 90 1007.3
20260509085503 4 0 0.0 0.0 0.00 0.23 0.00 90 1007.3
20260509085003 4 0 0.0 0.0 0.00 0.23 0.00 90 1007.3
20260509084503 4 0 0.0 0.0 0.00 0.23 0.00 90 1007.3
20260509084003 4 0 0.0 0.0 0.00 0.23 0.00 90 1007.3
20260509083503 4 0 0.0 0.0 0.00 0.23 0.00 90 1007.3
20260509083003 4 0 0.0 0.0 0.00 0.23 0.00 90 1007.4
20260509082503 3 0 0.0 0.0 0.00 0.23 0.00 89 1007.4
20260509082003 3 0 0.0 0.0 0.00 0.23 0.00 89 1007.4
20260509081503 3 0 0.0 0.0 0.00 0.23 0.00 89 1007.4
20260509081003 3 0 0.0 0.0 0.00 0.23 0.00 89 1007.5
20260509080503 3 0 0.0 0.0 0.00 0.23 0.00 89 1007.5
20260509080004 3 0 0.0 0.0 0.00 0.23 0.00 89 1007.6
20260509075503 3 0 0.0 0.0 0.00 0.23 0.00 89 1007.6
20260509075003 3 0 0.0 0.0 0.00 0.23 0.00 89 1007.5
20260509074503 3 0 0.0 0.0 0.00 0.23 0.00 89 1007.7
20260509074217 3 0 0.0 0.0 0.00 0.23 0.00 88 1007.6
20260509073503 3 0 0.0 0.0 0.00 0.23 0.00 88 1007.8
20260509073003 3 0 0.0 0.0 0.00 0.23 0.00 89 1007.8
20260509072718 3 0 0.0 0.0 0.00 0.23 0.00 89 1007.7
20260509072003 3 0 0.0 0.0 0.00 0.23 0.00 87 1007.9
20260509071503 3 0 0.0 0.0 0.00 0.23 0.00 87 1007.9
20260509071003 3 0 0.0 0.0 0.00 0.23 0.00 88 1007.9
20260509070503 3 0 0.0 0.0 0.00 0.23 0.00 87 1007.9
20260509070217 3 0 0.0 0.0 0.00 0.23 0.00 88 1007.9
20260509065504 3 0 0.0 0.0 0.00 0.23 0.00 88 1008.0
20260509065217 3 0 0.0 0.0 0.00 0.23 0.00 88 1008.0
20260509064503 3 0 0.0 0.0 0.00 0.23 0.00 88 1008.1
20260509064003 3 0 0.0 0.0 0.00 0.23 0.00 88 1008.2
20260509063503 3 0 0.0 0.0 0.00 0.23 0.00 87 1008.2
20260509063003 4 0 0.0 0.0 0.00 0.23 0.00 87 1008.2
20260509062718 3 0 0.0 0.0 0.00 0.23 0.00 87 1008.4
20260509062217 4 0 0.0 0.0 0.00 0.23 0.00 87 1008.4
20260509061718 4 0 0.0 0.0 0.00 0.23 0.00 87 1008.7
20260509061003 4 0 0.0 0.0 0.00 0.23 0.00 87 1008.7
20260509060503 4 0 0.0 0.0 0.00 0.23 0.00 87 1008.8
20260509060004 4 0 0.0 0.0 0.00 0.23 0.00 87 1008.9
20260509055718 4 0 0.0 0.0 0.00 0.23 0.00 86 1009.0
20260509055003 4 159 0.0 1.6 0.00 0.23 0.00 84 1009.0
20260509054718 4 159 0.0 1.6 0.00 0.23 0.00 85 1009.0
20260509054003 4 0 0.0 0.0 0.00 0.23 0.00 85 1009.0
20260509053503 4 0 0.0 0.0 0.00 0.23 0.00 82 1009.0
20260509053003 4 0 0.0 0.0 0.00 0.23 0.00 83 1009.3
20260509052503 4 0 0.0 0.0 0.00 0.23 0.00 81 1009.1
20260509052218 4 0 0.0 0.0 0.00 0.23 0.00 82 1009.2
20260509051503 4 0 0.0 0.0 0.00 0.23 0.00 85 1009.3
20260509051003 4 0 0.0 0.0 0.00 0.23 0.00 84 1009.3
20260509050504 4 159 0.0 1.6 0.00 0.23 0.00 84 1009.3
20260509050003 4 159 0.0 1.6 0.00 0.23 0.00 83 1009.4
20260509045503 5 159 0.0 1.6 0.00 0.23 0.00 85 1009.5
20260509045003 5 0 0.0 0.0 0.00 0.23 0.00 84 1009.5
20260509044504 5 0 0.0 0.0 0.00 0.23 0.00 85 1009.5
20260509044218 5 0 0.0 0.0 0.00 0.23 0.00 85 1009.5
20260509043717 5 0 0.0 0.0 0.00 0.23 0.00 84 1009.6
20260509043003 4 0 0.0 0.0 0.00 0.23 0.00 81 1009.7
20260509042503 5 0 0.0 0.0 0.00 0.23 0.00 82 1009.7
20260509042028 5 0 0.0 0.0 0.00 0.23 0.00 83 1009.8
20260509041721 5 0 0.0 0.0 0.00 0.23 0.00 83 1009.8
20260509041218 5 0 0.0 0.0 0.00 0.23 0.00 83 1009.6
20260509040503 5 0 0.0 0.0 0.00 0.23 0.00 84 1009.8
20260509040005 5 0 0.0 0.0 0.00 0.23 0.00 83 1009.9
20260509035503 5 0 0.0 0.0 0.00 0.23 0.23 83 1009.9
20260509035218 5 0 0.0 0.0 0.00 0.23 0.23 83 1010.0
20260509034503 5 0 0.0 0.0 0.00 0.23 0.23 81 1010.0
20260509034003 5 0 0.0 0.0 0.00 0.23 0.23 79 1010.0
20260509033503 5 0 0.0 0.0 0.00 0.23 0.23 80 1010.1
20260509033003 5 0 0.0 0.0 0.00 0.23 0.23 79 1010.1
20260509032505 5 0 0.0 0.0 0.00 0.23 0.23 79 1010.1
20260509032007 5 0 0.0 0.0 0.00 0.23 0.23 81 1010.2
20260509031719 5 0 0.0 0.0 0.00 0.23 0.23 82 1010.2
20260509031005 5 0 0.0 0.0 0.00 0.23 0.23 79 1010.2
20260509030503 5 0 0.0 0.0 0.00 0.23 0.23 79 1010.3
20260509030217 5 0 0.0 0.0 0.00 0.23 0.23 79 1010.2
20260509025503 5 0 0.0 0.0 0.00 0.23 0.23 79 1010.2
20260509025217 5 0 0.0 0.0 0.00 0.23 0.23 77 1010.2
20260509024503 6 0 0.0 0.0 0.00 0.23 0.23 80 1010.3
20260509024003 6 0 0.0 0.0 0.00 0.23 0.23 80 1010.3
20260509023503 6 159 0.0 1.6 0.00 0.23 0.23 79 1010.3
20260509023003 6 159 0.0 1.6 0.00 0.23 0.23 73 1010.3
20260509022718 6 0 0.0 0.0 0.00 0.25 0.23 70 1010.4
20260509022003 6 0 0.0 0.0 0.00 0.25 0.23 69 1010.2
20260509021718 6 0 0.0 0.0 0.00 0.28 0.23 70 1010.3
20260509021003 6 0 0.0 0.0 0.00 0.30 0.23 79 1010.1
20260509020503 6 0 0.0 0.0 0.00 0.33 0.23 78 1010.2
20260509020003 7 0 0.0 0.0 0.00 0.33 0.23 78 1010.1
20260509015503 7 0 0.0 0.0 0.00 0.36 0.23 77 1010.0
20260509015003 7 0 0.0 0.0 0.00 0.36 0.23 76 1010.0
20260509014718 7 0 0.0 0.0 0.00 0.36 0.23 74 1009.9
20260509014003 7 0 0.0 0.0 0.00 0.38 0.23 76 1010.0
20260509013503 7 0 0.0 0.0 0.00 0.38 0.23 77 1010.0
20260509013217 7 0 0.0 0.0 0.00 0.41 0.23 76 1010.0
20260509012718 8 0 0.0 0.0 0.00 0.46 0.23 69 1010.0
20260509012003 8 0 0.0 0.0 0.00 0.48 0.23 73 1010.0
20260509011503 8 0 0.0 0.0 0.00 0.48 0.23 71 1009.9
20260509011217 8 0 0.0 0.0 0.00 0.48 0.23 70 1009.9
20260509010503 8 0 0.0 0.0 0.00 0.48 0.23 69 1009.9
20260509010003 9 0 0.0 0.0 0.00 0.48 0.23 64 1009.9
20260509005503 9 0 0.0 0.0 0.00 0.48 0.23 64 1009.9
20260509005003 9 0 0.0 0.0 0.00 0.48 0.23 55 1009.8
20260509004718 10 0 0.0 0.0 0.00 0.48 0.23 55 1009.9
20260509004003 10 0 0.0 0.0 0.00 0.48 0.23 53 1009.8
20260509003717 10 0 0.0 0.0 0.00 0.48 0.23 49 1009.7
20260509003003 10 0 0.0 0.0 0.00 0.48 0.23 49 1009.7
20260509002504 10 0 0.0 0.0 0.00 0.51 0.23 54 1009.6
20260509002216 10 0 0.0 0.0 0.00 0.51 0.23 53 1009.5
20260509001503 11 0 0.0 0.0 0.00 0.51 0.23 46 1009.5
20260509001003 11 0 0.0 0.0 0.00 0.51 0.23 47 1009.3
20260509000503 11 0 0.0 0.0 0.00 0.51 0.23 47 1009.4
20260509000003 11 0 0.0 0.0 0.00 0.51 0.23 47 1009.4
20260508235503 11 0 0.0 0.0 0.00 0.51 0.23 49 1009.4
20260508235218 11 159 0.0 1.6 0.00 0.51 0.23 46 1009.4
20260508234503 11 159 0.0 3.2 0.00 0.51 0.23 49 1009.4
20260508234218 11 159 0.0 3.2 0.00 0.51 0.23 49 1009.3
20260508233503 12 159 0.0 3.2 0.00 0.51 0.23 49 1009.3
20260508233003 12 180 1.6 3.2 0.00 0.51 0.23 51 1009.3
20260508232506 12 236 1.6 3.2 0.00 0.51 0.23 47 1009.3
20260508232003 12 240 1.6 3.2 0.00 0.51 0.23 47 1009.3
20260508231503 12 240 0.0 3.2 0.00 0.51 0.23 49 1009.4
20260508231003 12 240 1.6 4.8 0.00 0.51 0.23 46 1009.3
20260508230503 12 240 1.6 4.8 0.00 0.51 0.23 46 1009.3
20260508230003 12 240 1.6 4.8 0.00 0.51 0.23 41 1009.2
20260508225503 12 240 1.6 3.2 0.00 0.51 0.23 43 1009.3
20260508225003 12 236 1.6 4.8 0.00 0.51 0.23 41 1009.3